CAPE
0 0 0 nan nan nan nan nan nan nan nan nan nan nan 0 nan nan nan 0 nan nan nan nan nan nan nan nan nan nan nan nan nan nan nan nan nan nan nan nan nan nan nan 0 0 0 1 0 0 0 0 0 0 0 0 nan nan nan nan nan nan nan nan nan nan nan nan nan 0 0 0 0 0 0 0 0 0 0 0 0 0 0 0 0 1 1 2
0 0 0 nan nan nan nan nan nan nan nan nan nan nan 0 nan nan nan nan nan nan nan nan nan nan nan nan 0 nan nan nan nan nan nan nan nan nan nan nan nan nan nan nan 0 0 1 1 1 1 1 0 0 nan nan nan nan nan nan nan nan nan nan nan nan nan nan nan 0 0 0 0 0 0 0 1 1 1 1 1 0 0 0 0 2 2 2
0 0 0 nan nan nan nan nan nan nan nan nan nan nan nan nan nan nan nan nan nan nan nan nan nan nan nan 0 nan nan nan nan nan nan nan nan nan nan nan nan nan nan nan nan nan 0 0 2 2 1 0 nan nan nan nan nan nan nan nan nan nan nan nan nan nan nan nan nan nan nan 0 0 1 1 1 1 1 1 1 1 1 1 1 2 2 3
0 0 0 nan nan nan nan nan nan nan nan nan nan nan nan nan nan nan nan nan nan nan 0 0 0 nan nan nan nan nan nan nan nan nan nan nan nan nan nan nan nan nan nan nan nan nan nan 0 0 1 0 nan nan nan nan nan nan nan nan nan nan nan nan nan nan nan nan nan nan nan 0 1 1 1 2 1 2 2 2 2 2 2 3 3 3 3
0 0 0 0 0 nan nan nan nan nan 0 0 nan nan nan nan nan nan nan nan nan nan nan nan nan nan nan nan nan nan nan nan nan nan nan nan nan nan nan nan nan nan nan nan nan nan nan nan nan nan 0 nan nan nan nan nan nan nan nan nan nan nan nan nan nan nan nan nan nan nan 0 0 1 1 1 2 2 2 2 3 3 4 4 3 3 4
1 0 0 nan nan 0 1 0 0 0 0 nan nan nan nan nan nan nan nan nan nan nan nan nan nan nan nan nan nan nan nan nan nan nan nan nan nan nan nan nan nan nan nan nan nan nan nan nan nan nan nan 0 nan nan nan nan nan nan nan nan nan nan nan nan nan nan nan nan nan nan nan 0 0 0 1 1 2 2 2 3 3 5 5 5 5 5
1 0 nan nan nan nan 0 0 0 0 nan nan nan nan nan nan nan nan nan nan nan nan nan nan nan nan nan nan nan nan nan nan nan nan nan nan nan nan nan nan nan nan nan nan nan nan nan nan nan nan nan nan nan nan nan nan nan nan nan nan nan nan nan nan nan nan nan nan nan nan nan nan 0 0 0 1 1 1 2 3 3 4 5 5 5 5
nan 0 0 0 0 0 0 0 0 0 nan nan nan nan nan nan nan nan nan nan nan nan nan nan nan nan nan nan nan nan nan nan nan nan nan nan nan nan nan nan nan nan nan nan nan nan nan nan nan nan nan nan 0 0 0 nan nan nan nan nan nan nan nan nan nan nan nan nan nan nan nan nan nan nan 0 0 0 0 1 1 1 2 4 5 5 6
nan nan 0 nan nan nan 0 0 nan nan nan nan nan nan nan nan nan nan nan nan nan nan nan nan nan nan nan nan nan nan nan nan nan nan nan nan nan nan nan nan nan nan nan nan nan nan nan nan nan nan nan nan nan nan nan nan nan nan nan nan nan nan nan nan nan nan nan nan nan nan nan nan nan nan 0 0 0 0 0 1 1 1 3 5 5 5
nan nan 0 nan nan nan nan 0 nan nan nan nan nan nan nan nan nan nan nan nan nan nan nan nan nan nan nan nan nan nan nan nan nan nan nan nan nan nan nan nan nan nan nan nan nan nan nan nan nan nan nan nan nan nan nan nan nan nan nan nan nan nan nan nan nan nan 0 nan nan nan nan nan nan nan nan 0 0 0 0 0 0 1 2 4 4 5
nan nan 0 0 0 nan nan nan nan nan nan nan nan nan nan nan nan nan nan nan nan nan nan nan nan nan nan nan nan nan nan nan nan nan nan nan nan nan nan nan nan nan nan nan nan nan nan nan nan nan nan nan nan nan nan nan nan nan nan nan nan nan nan nan nan nan nan 0 nan nan nan nan nan nan nan 0 0 0 0 0 0 1 1 3 3 5
nan 0 0 0 0 0 nan nan nan nan nan nan nan nan nan nan nan nan nan nan nan nan nan nan nan nan nan nan nan nan nan nan nan nan nan nan nan nan nan nan nan nan nan nan nan nan nan nan nan nan nan nan nan nan nan nan nan nan nan nan nan nan nan nan nan nan nan nan nan nan nan nan nan nan 0 0 0 0 0 0 0 0 1 2 2 5
nan nan nan nan nan nan nan nan nan nan nan nan nan nan nan nan nan nan nan nan nan nan nan nan nan nan nan nan nan nan nan nan nan nan nan nan nan nan nan nan nan nan nan nan nan nan nan nan nan nan nan nan nan nan nan nan nan nan nan nan nan nan nan nan nan nan nan nan nan nan nan nan nan nan 0 0 0 0 0 0 0 0 1 2 2 4
nan nan nan nan nan nan nan nan nan nan nan nan nan nan nan nan nan nan nan nan nan nan nan nan nan nan nan nan nan nan nan nan nan nan nan nan nan nan nan nan nan nan nan nan nan nan nan nan nan nan nan nan nan nan nan nan nan nan nan nan nan nan nan nan nan nan nan nan nan nan nan nan 0 0 1 1 0 0 0 0 0 0 1 2 2 3
nan nan nan nan nan nan nan nan nan nan nan nan nan nan nan nan nan nan nan nan nan nan nan nan nan nan nan nan nan nan nan nan nan nan nan nan nan nan nan nan nan nan nan nan nan nan nan nan nan nan nan nan nan nan nan nan nan nan nan nan nan nan nan nan nan nan nan 0 nan nan nan 0 1 1 1 1 0 0 1 0 0 1 1 2 2 3
nan nan nan nan nan nan nan nan nan nan nan nan nan nan nan nan nan nan nan nan nan nan nan nan nan nan nan nan nan nan nan nan nan nan nan nan nan nan nan nan nan nan nan nan nan nan nan nan nan nan nan nan nan nan nan nan nan nan nan nan nan nan nan nan nan nan 0 0 nan nan 0 0 1 1 1 1 1 1 1 1 1 1 1 2 2 3
nan nan nan nan nan nan nan nan nan nan nan nan nan nan nan nan nan nan nan nan nan nan nan nan nan nan nan nan nan nan nan nan nan nan nan nan nan nan nan nan nan nan nan nan nan nan nan nan nan nan nan nan nan nan nan nan nan nan nan nan nan nan nan nan nan 0 0 0 nan nan nan 0 1 1 1 1 1 1 2 1 1 1 1 2 2 2
nan nan nan nan nan nan nan nan nan nan nan nan nan nan nan nan nan nan nan nan nan nan nan nan nan nan nan nan nan nan nan nan nan nan nan nan nan nan nan nan nan nan nan nan nan nan nan nan nan nan nan nan nan nan nan nan nan nan nan nan nan nan nan 0 0 0 0 nan nan nan nan 0 0 0 1 1 2 2 2 1 1 2 2 2 2 2
nan nan nan nan nan nan nan nan nan nan nan nan nan nan nan nan nan nan nan nan nan nan nan nan nan nan nan nan nan nan nan nan nan nan nan nan nan nan nan nan nan nan nan nan nan nan nan nan nan nan nan nan nan nan nan nan nan 0 0 0 0 nan nan nan nan nan nan nan nan nan nan 0 0 0 1 1 1 1 2 2 2 2 2 2 2 3
nan nan nan nan nan nan nan nan nan nan nan nan nan nan nan nan nan nan nan nan nan nan nan nan nan nan nan nan nan nan nan nan nan nan nan nan nan nan nan nan nan nan nan nan nan nan nan nan nan nan nan nan nan nan nan nan nan 0 0 0 0 nan nan nan nan nan nan nan nan nan nan 0 1 1 1 1 1 1 2 2 2 2 2 2 2 2
nan nan nan nan nan nan nan nan nan nan nan nan nan nan nan nan nan nan nan nan nan nan nan nan nan nan nan nan nan nan nan nan nan nan nan nan nan nan nan nan nan nan nan nan nan nan nan nan nan nan nan nan nan nan nan 1 1 1 0 0 0 nan nan nan nan nan nan nan nan nan nan 0 0 0 1 1 1 1 1 2 2 2 2 3 3 3
nan nan nan nan nan nan nan nan 0 0 0 nan nan nan nan nan nan nan nan nan nan nan nan nan nan nan nan nan nan nan nan nan nan nan nan nan nan nan nan nan nan nan nan nan nan nan nan nan nan nan nan nan nan nan nan 0 0 0 0 0 0 0 0 nan nan nan nan nan nan nan nan 0 0 0 0 0 1 1 1 2 2 3 3 3 3 3
nan nan nan nan nan nan nan nan nan nan nan nan nan nan nan nan nan nan nan nan nan nan nan nan nan nan nan nan nan nan nan nan nan nan nan nan nan nan nan nan nan nan nan nan nan nan nan nan nan nan nan nan nan nan nan 0 0 0 0 0 0 nan nan nan nan nan nan nan nan nan 0 0 0 0 0 0 1 1 1 2 2 3 3 4 4 4
nan nan nan nan nan nan nan nan nan nan nan nan nan nan nan nan nan nan nan nan nan nan nan nan nan nan nan nan nan nan nan nan nan nan nan nan nan nan nan nan nan nan nan nan nan nan nan nan nan nan nan nan nan nan nan nan nan 0 nan nan nan nan nan nan nan nan nan 0 0 0 0 0 0 0 0 0 1 1 2 3 3 4 4 4 4 4
nan nan nan nan nan nan nan nan nan nan nan nan nan nan nan nan nan nan nan nan nan nan nan nan nan nan nan nan nan nan nan nan nan nan nan nan nan nan nan nan nan nan nan nan nan nan nan nan nan nan nan nan nan nan nan nan nan nan nan nan nan nan nan nan nan nan nan 0 0 0 0 0 0 0 0 0 1 1 3 4 4 4 5 5 5 5
nan nan nan nan nan nan nan nan nan nan nan nan nan nan nan nan nan nan nan nan nan nan nan nan nan nan nan nan nan nan nan nan nan nan nan nan nan nan nan nan nan nan nan nan nan nan nan nan nan nan nan nan nan nan nan nan nan nan nan nan nan nan nan nan nan nan nan nan nan nan nan 0 0 0 0 1 3 3 4 4 4 5 5 5 5 4
4 7 5 1 1 4 12 9 2 2 nan nan nan nan nan nan nan nan nan nan nan nan nan nan nan nan nan nan nan nan nan nan nan nan nan nan nan nan nan nan nan nan nan nan nan nan nan nan nan nan nan nan nan nan nan nan nan nan nan nan nan nan nan nan nan nan nan nan nan nan nan 0 0 0 1 2 4 4 5 5 5 6 6 5 5 6
33 30 31 33 33 34 29 21 11 11 3 nan nan nan nan nan nan nan nan nan nan nan nan nan nan nan nan nan nan nan nan nan nan nan nan nan nan nan nan nan nan nan nan nan nan nan nan nan nan nan nan nan nan nan nan nan nan nan nan nan nan nan nan nan nan nan nan nan nan nan nan 0 1 1 2 4 4 4 5 6 6 6 6 3 3 nan
19 23 24 30 30 29 26 19 12 12 6 2 nan nan nan nan nan nan nan nan nan nan nan nan nan nan nan nan nan nan nan nan nan nan nan nan nan nan nan nan nan nan nan nan nan nan nan nan nan nan nan nan nan nan nan nan nan nan nan nan nan nan nan nan nan nan nan nan nan nan nan 0 1 1 3 3 5 5 5 6 6 7 5 nan nan nan
nan 1 5 14 14 13 7 nan 4 4 5 3 nan nan nan nan nan nan nan nan nan nan nan nan nan nan nan nan nan nan nan 3 nan nan nan nan nan nan nan nan nan nan nan nan nan nan nan nan nan nan nan nan nan nan nan nan nan nan nan nan nan nan nan nan nan nan nan nan nan nan nan 1 1 1 2 3 4 4 5 6 6 5 0 nan nan nan
nan nan nan nan nan nan nan nan nan nan 3 4 1 1 nan nan nan nan nan nan nan nan nan nan nan nan nan nan nan nan nan 1 nan nan nan nan nan nan nan nan nan nan nan nan nan nan nan nan nan nan nan nan nan nan nan nan nan nan nan nan nan nan nan nan nan nan nan nan nan nan nan 0 1 1 2 3 4 4 5 6 6 5 nan nan nan nan
nan nan nan nan nan nan nan nan nan nan nan nan nan nan nan nan nan nan nan nan nan nan nan nan nan nan nan nan nan nan nan nan nan nan nan nan nan nan nan nan nan nan nan nan nan nan nan nan nan nan nan nan nan nan nan nan nan nan nan nan nan nan nan nan nan nan nan nan nan nan nan nan nan nan 0 1 2 2 4 6 6 7 2 0 0 nan
nan nan nan nan nan nan nan nan nan nan nan nan nan nan nan nan nan nan nan nan nan nan nan nan nan nan nan nan nan nan nan nan nan nan 2 nan 1 1 nan nan nan nan nan nan nan nan nan nan nan nan nan nan nan nan nan nan nan nan nan nan nan nan nan nan nan nan nan nan nan nan nan nan nan nan nan 0 1 1 3 6 6 8 8 1 1 1
nan nan nan nan nan nan nan nan nan nan nan nan nan nan nan nan nan nan nan nan nan nan nan nan nan nan nan nan nan nan nan nan nan nan 5 0 2 2 0 0 0 nan nan nan nan nan nan nan nan nan nan nan nan nan nan nan nan nan nan nan nan nan nan nan nan nan nan nan nan nan nan nan nan nan nan nan 1 1 3 5 5 6 7 5 5 3
nan nan nan nan nan nan nan nan nan nan nan nan nan nan nan nan nan nan nan nan nan nan nan nan nan nan nan nan nan nan nan nan nan nan 0 nan 1 1 1 nan nan nan nan 0 0 nan nan nan nan nan nan nan nan nan nan nan nan nan nan nan nan nan nan nan nan nan nan nan nan nan nan nan nan nan nan nan 0 0 2 3 3 2 3 6 6 5
nan nan nan nan nan nan nan nan nan nan nan nan nan nan nan nan nan nan nan nan nan nan nan nan nan nan nan nan nan nan nan nan nan nan nan nan 0 0 2 0 0 0 0 0 0 0 nan nan nan 0 nan nan nan nan nan nan nan nan nan nan nan nan nan nan nan nan nan nan nan nan nan nan nan nan nan nan 0 0 0 0 0 0 1 2 2 3
nan nan nan nan nan nan nan nan nan nan nan nan nan nan nan nan nan nan nan nan nan nan nan nan nan nan nan nan nan nan nan nan nan nan nan nan nan nan 0 2 2 2 0 2 2 2 0 0 0 nan nan nan nan nan nan nan nan nan nan nan nan nan nan nan nan nan nan nan nan nan nan nan nan nan nan nan nan nan nan 0 0 0 0 1 1 1
nan nan nan nan nan nan nan nan nan nan nan nan nan nan nan nan nan nan nan nan nan nan nan nan nan nan nan nan nan nan nan nan nan nan nan nan nan nan nan nan nan nan nan nan nan 1 1 0 0 nan nan nan nan nan nan nan nan nan nan nan nan nan nan nan nan nan nan nan nan nan nan nan nan nan nan nan nan nan nan nan nan nan 0 0 0 0
nan nan nan nan nan nan nan nan nan nan nan nan nan nan nan nan nan nan nan nan nan nan nan nan nan nan nan nan nan nan nan nan nan nan nan nan nan nan nan nan nan nan nan nan nan 1 2 0 0 nan nan nan nan nan nan nan nan nan nan nan nan nan nan nan nan nan nan nan nan nan nan nan nan nan nan nan nan nan nan nan nan nan nan nan nan nan
nan nan nan nan nan nan nan nan nan nan nan nan nan nan nan nan nan nan nan nan nan nan nan nan nan nan nan nan nan nan nan nan nan nan nan nan nan nan nan nan nan nan nan nan nan 0 0 1 1 1 1 nan nan nan nan nan nan nan nan nan nan nan nan nan nan nan nan nan nan nan nan nan nan nan nan nan nan nan nan nan nan nan nan nan nan nan
nan nan nan nan nan nan nan nan nan nan nan nan nan nan nan nan nan nan nan nan nan nan nan nan nan nan nan nan nan nan nan nan nan nan nan nan nan nan nan nan nan nan nan nan nan nan nan nan nan nan nan nan nan nan nan nan nan nan nan nan nan nan nan nan nan nan nan nan nan nan nan nan nan nan nan nan nan nan nan nan nan nan nan nan nan nan
nan nan nan nan nan nan nan nan nan nan nan nan nan nan nan nan nan nan nan nan nan nan nan nan nan nan nan nan nan nan nan nan nan nan nan nan nan nan nan nan nan nan nan nan nan nan nan nan nan nan nan nan nan nan nan nan nan nan nan nan nan nan nan nan nan nan nan nan nan nan nan nan nan nan nan nan nan nan nan nan nan nan nan nan nan nan
nan nan nan nan nan nan nan nan 0 0 nan nan nan nan nan nan nan nan nan nan nan nan nan nan nan nan nan nan nan nan nan nan nan nan nan nan nan nan nan nan nan nan nan nan nan nan nan nan nan nan nan nan nan nan nan nan nan nan nan nan nan nan nan nan nan nan nan nan nan nan nan nan nan nan nan nan nan nan nan nan nan nan nan nan nan nan
nan nan nan nan nan nan nan nan nan nan nan nan nan nan nan nan nan nan nan nan nan nan nan nan nan nan nan nan nan nan nan nan nan nan nan nan nan nan nan nan nan nan nan nan nan nan nan nan nan nan nan nan nan nan nan nan nan nan nan nan nan nan nan nan nan nan nan nan nan nan nan nan nan nan nan nan nan nan nan nan nan nan nan nan nan nan
nan nan nan nan nan nan nan nan nan nan nan nan nan nan nan nan nan nan nan nan nan nan nan nan nan nan nan nan nan nan nan nan nan nan nan nan 0 0 nan nan nan nan nan nan nan nan nan nan nan nan nan nan nan nan nan nan nan nan nan nan nan nan nan nan nan nan nan nan nan nan nan nan nan nan nan nan nan nan nan nan nan nan nan nan nan nan
nan nan nan nan nan nan nan nan nan nan nan nan nan nan nan nan nan nan nan nan nan nan nan nan nan nan nan nan nan nan nan nan nan nan nan nan nan nan nan nan nan nan nan nan nan nan nan nan nan nan nan nan nan nan nan nan nan nan nan nan nan nan nan nan nan nan nan nan nan nan nan nan nan nan nan nan nan nan nan nan nan nan nan nan nan nan
nan nan nan nan nan nan nan nan nan nan nan nan nan nan nan nan nan nan nan nan nan nan nan nan nan nan nan nan nan nan nan nan nan nan nan nan nan nan nan nan nan nan nan nan nan nan nan nan nan nan nan nan nan nan nan nan nan nan nan nan nan nan nan nan nan nan nan nan nan nan nan nan nan nan nan nan nan nan nan nan nan nan nan nan nan nan
nan nan nan nan nan nan nan nan nan nan nan nan nan nan nan nan nan nan nan nan nan nan nan nan nan nan nan nan nan nan nan nan nan nan nan nan nan nan nan nan nan nan nan nan nan nan nan nan nan nan nan nan nan nan nan nan nan nan nan nan nan nan nan nan nan nan nan nan nan nan nan nan nan nan 1 1 nan nan nan nan nan nan nan nan nan nan
nan nan nan nan nan nan nan nan nan nan nan nan nan nan nan nan nan nan nan nan nan nan nan nan nan nan nan nan nan nan nan nan nan nan nan nan nan nan nan nan nan nan nan nan nan nan nan nan nan nan nan nan nan nan nan nan nan nan nan nan nan nan nan nan nan nan nan nan nan nan nan nan 1 1 4 5 1 1 nan nan nan nan nan nan nan nan
nan nan nan nan nan nan nan nan nan nan nan nan nan nan nan nan nan nan nan nan nan nan nan nan nan nan nan nan nan nan nan nan nan nan nan nan nan nan nan nan nan nan nan nan nan nan nan nan nan nan nan nan nan nan nan nan nan nan nan nan nan nan nan nan nan nan nan nan nan nan nan 0 5 5 7 2 nan nan nan nan nan nan nan nan nan nan
nan nan nan nan nan nan nan nan nan nan nan nan nan nan nan nan nan nan nan nan nan nan nan nan nan nan nan nan nan nan nan nan nan nan nan nan nan nan nan nan nan nan nan nan nan nan nan nan nan nan nan nan nan nan nan nan nan nan nan nan nan nan nan nan nan 0 1 0 nan nan nan nan nan nan nan nan nan nan nan nan nan nan nan nan nan nan
CIN
-0 -0 -0 nan nan nan nan nan nan nan nan nan nan nan -0 nan nan nan -0 nan nan nan nan nan nan nan nan nan nan nan nan nan nan nan nan nan nan nan nan nan nan nan -1 -0 -0 -0 -0 -0 -0 -0 -0 -0 -0 -0 nan nan nan nan nan nan nan nan nan nan nan nan nan -0 -0 -0 -0 -0 -0 -0 -0 -0 -0 -0 -0 -0 -0 -0 -0 -0 -0 -0
-0 -0 -0 nan nan nan nan nan nan nan nan nan nan nan -0 nan nan nan nan nan nan nan nan nan nan nan nan -0 nan nan nan nan nan nan nan nan nan nan nan nan nan nan nan -0 -0 -0 -0 -0 -0 -0 -0 -0 nan nan nan nan nan nan nan nan nan nan nan nan nan nan nan -0 -0 -0 -0 -0 -0 -0 -0 -0 -0 -0 -0 -0 -0 -0 -0 -0 -0 -0
-0 -0 -0 nan nan nan nan nan nan nan nan nan nan nan nan nan nan nan nan nan nan nan nan nan nan nan nan -0 nan nan nan nan nan nan nan nan nan nan nan nan nan nan nan nan nan -0 -0 -0 -0 -0 -0 nan nan nan nan nan nan nan nan nan nan nan nan nan nan nan nan nan nan nan -0 -0 -0 -0 -0 -0 -0 -0 -0 -0 -0 -0 -0 -0 -0 -0
-0 -0 -0 nan nan nan nan nan nan nan nan nan nan nan nan nan nan nan nan nan nan nan -0 -0 -0 nan nan nan nan nan nan nan nan nan nan nan nan nan nan nan nan nan nan nan nan nan nan -0 -0 -0 -0 nan nan nan nan nan nan nan nan nan nan nan nan nan nan nan nan nan nan nan -0 -0 -0 -0 -0 -0 -0 -0 -0 -0 -0 -0 -0 -0 -0 -0
-0 -0 -0 -0 -0 nan nan nan nan nan -0 -0 nan nan nan nan nan nan nan nan nan nan nan nan nan nan nan nan nan nan nan nan nan nan nan nan nan nan nan nan nan nan nan nan nan nan nan nan nan nan -1 nan nan nan nan nan nan nan nan nan nan nan nan nan nan nan nan nan nan nan -0 -0 -0 -0 -0 -0 -0 -0 -0 -0 -0 -0 -0 -0 -0 -0
-0 -0 -0 nan nan -0 -0 -0 -0 -0 -0 nan nan nan nan nan nan nan nan nan nan nan nan nan nan nan nan nan nan nan nan nan nan nan nan nan nan nan nan nan nan nan nan nan nan nan nan nan nan nan nan -0 nan nan nan nan nan nan nan nan nan nan nan nan nan nan nan nan nan nan nan -0 -0 -0 -0 -0 -0 -0 -0 -0 -0 -0 -0 -0 -0 -0
-0 -0 nan nan nan nan -0 -0 -0 -0 nan nan nan nan nan nan nan nan nan nan nan nan nan nan nan nan nan nan nan nan nan nan nan nan nan nan nan nan nan nan nan nan nan nan nan nan nan nan nan nan nan nan nan nan nan nan nan nan nan nan nan nan nan nan nan nan nan nan nan nan nan nan -0 -0 -0 -0 -0 -0 -0 -0 -0 -0 -0 -0 -0 -0
nan -0 -0 -0 -0 -0 -0 -0 -0 -0 nan nan nan nan nan nan nan nan nan nan nan nan nan nan nan nan nan nan nan nan nan nan nan nan nan nan nan nan nan nan nan nan nan nan nan nan nan nan nan nan nan nan -3 -3 -1 nan nan nan nan nan nan nan nan nan nan nan nan nan nan nan nan nan nan nan -0 -0 -0 -0 -0 -0 -0 -0 -0 -0 -0 -0
nan nan -0 nan nan nan -0 -0 nan nan nan nan nan nan nan nan nan nan nan nan nan nan nan nan nan nan nan nan nan nan nan nan nan nan nan nan nan nan nan nan nan nan nan nan nan nan nan nan nan nan nan nan nan nan nan nan nan nan nan nan nan nan nan nan nan nan nan nan nan nan nan nan nan nan -0 -0 -0 -0 -0 -0 -0 -0 -0 -0 -0 -0
nan nan -0 nan nan nan nan -0 nan nan nan nan nan nan nan nan nan nan nan nan nan nan nan nan nan nan nan nan nan nan nan nan nan nan nan nan nan nan nan nan nan nan nan nan nan nan nan nan nan nan nan nan nan nan nan nan nan nan nan nan nan nan nan nan nan nan -0 nan nan nan nan nan nan nan nan -0 -0 -0 -0 -0 -0 -0 -0 -0 -0 -0
nan nan -0 -0 -0 nan nan nan nan nan nan nan nan nan nan nan nan nan nan nan nan nan nan nan nan nan nan nan nan nan nan nan nan nan nan nan nan nan nan nan nan nan nan nan nan nan nan nan nan nan nan nan nan nan nan nan nan nan nan nan nan nan nan nan nan nan nan -0 nan nan nan nan nan nan nan -0 -0 -0 -0 -0 -0 -0 -0 -0 -0 -0
nan -0 -0 -0 -0 -0 nan nan nan nan nan nan nan nan nan nan nan nan nan nan nan nan nan nan nan nan nan nan nan nan nan nan nan nan nan nan nan nan nan nan nan nan nan nan nan nan nan nan nan nan nan nan nan nan nan nan nan nan nan nan nan nan nan nan nan nan nan nan nan nan nan nan nan nan -0 -0 -0 -0 -0 -0 -0 -0 -0 -0 -0 -0
nan nan nan nan nan nan nan nan nan nan nan nan nan nan nan nan nan nan nan nan nan nan nan nan nan nan nan nan nan nan nan nan nan nan nan nan nan nan nan nan nan nan nan nan nan nan nan nan nan nan nan nan nan nan nan nan nan nan nan nan nan nan nan nan nan nan nan nan nan nan nan nan nan nan -0 -0 -0 -0 -0 -0 -0 -0 -0 -0 -0 -0
nan nan nan nan nan nan nan nan nan nan nan nan nan nan nan nan nan nan nan nan nan nan nan nan nan nan nan nan nan nan nan nan nan nan nan nan nan nan nan nan nan nan nan nan nan nan nan nan nan nan nan nan nan nan nan nan nan nan nan nan nan nan nan nan nan nan nan nan nan nan nan nan -0 -0 -0 -0 -0 -0 -0 -0 -0 -0 -0 -0 -0 -0
nan nan nan nan nan nan nan nan nan nan nan nan nan nan nan nan nan nan nan nan nan nan nan nan nan nan nan nan nan nan nan nan nan nan nan nan nan nan nan nan nan nan nan nan nan nan nan nan nan nan nan nan nan nan nan nan nan nan nan nan nan nan nan nan nan nan nan -0 nan nan nan -0 -0 -0 -0 -0 -0 -0 -0 -0 -0 -0 -0 -0 -0 -0
nan nan nan nan nan nan nan nan nan nan nan nan nan nan nan nan nan nan nan nan nan nan nan nan nan nan nan nan nan nan nan nan nan nan nan nan nan nan nan nan nan nan nan nan nan nan nan nan nan nan nan nan nan nan nan nan nan nan nan nan nan nan nan nan nan nan -0 -0 nan nan -0 -0 -0 -0 -0 -0 -0 -0 -0 -0 -0 -0 -0 -0 -0 -0
nan nan nan nan nan nan nan nan nan nan nan nan nan nan nan nan nan nan nan nan nan nan nan nan nan nan nan nan nan nan nan nan nan nan nan nan nan nan nan nan nan nan nan nan nan nan nan nan nan nan nan nan nan nan nan nan nan nan nan nan nan nan nan nan nan -0 -0 -0 nan nan nan -0 -0 -0 -0 -0 -0 -0 -0 -0 -0 -0 -0 -0 -0 -0
nan nan nan nan nan nan nan nan nan nan nan nan nan nan nan nan nan nan nan nan nan nan nan nan nan nan nan nan nan nan nan nan nan nan nan nan nan nan nan nan nan nan nan nan nan nan nan nan nan nan nan nan nan nan nan nan nan nan nan nan nan nan nan -0 -0 -0 -0 nan nan nan nan -0 -0 -0 -0 -0 -0 -0 -0 -0 -0 -0 -0 -0 -0 -0
nan nan nan nan nan nan nan nan nan nan nan nan nan nan nan nan nan nan nan nan nan nan nan nan nan nan nan nan nan nan nan nan nan nan nan nan nan nan nan nan nan nan nan nan nan nan nan nan nan nan nan nan nan nan nan nan nan -0 -0 -0 -0 nan nan nan nan nan nan nan nan nan nan -0 -0 -0 -0 -0 -0 -0 -0 -0 -0 -0 -0 -0 -0 -0
nan nan nan nan nan nan nan nan nan nan nan nan nan nan nan nan nan nan nan nan nan nan nan nan nan nan nan nan nan nan nan nan nan nan nan nan nan nan nan nan nan nan nan nan nan nan nan nan nan nan nan nan nan nan nan nan nan -0 -0 -0 -0 nan nan nan nan nan nan nan nan nan nan -0 -0 -0 -0 -0 -0 -0 -0 -0 -0 -0 -0 -0 -0 -0
nan nan nan nan nan nan nan nan nan nan nan nan nan nan nan nan nan nan nan nan nan nan nan nan nan nan nan nan nan nan nan nan nan nan nan nan nan nan nan nan nan nan nan nan nan nan nan nan nan nan nan nan nan nan nan -0 -0 -0 -0 -0 -0 nan nan nan nan nan nan nan nan nan nan -0 -0 -0 -0 -0 -0 -0 -0 -0 -0 -0 -0 -0 -0 -0
nan nan nan nan nan nan nan nan -0 -0 -0 nan nan nan nan nan nan nan nan nan nan nan nan nan nan nan nan nan nan nan nan nan nan nan nan nan nan nan nan nan nan nan nan nan nan nan nan nan nan nan nan nan nan nan nan -0 -0 -0 -0 -0 -0 -0 -0 nan nan nan nan nan nan nan nan -0 -0 -0 -0 -0 -0 -0 -0 -0 -0 -0 -0 -0 -0 -0
nan nan nan nan nan nan nan nan nan nan nan nan nan nan nan nan nan nan nan nan nan nan nan nan nan nan nan nan nan nan nan nan nan nan nan nan nan nan nan nan nan nan nan nan nan nan nan nan nan nan nan nan nan nan nan -0 -0 -0 -0 -0 -0 nan nan nan nan nan nan nan nan nan -0 -0 -0 -0 -0 -0 -0 -0 -0 -0 -0 -0 -0 -0 -0 -0
nan nan nan nan nan nan nan nan nan nan nan nan nan nan nan nan nan nan nan nan nan nan nan nan nan nan nan nan nan nan nan nan nan nan nan nan nan nan nan nan nan nan nan nan nan nan nan nan nan nan nan nan nan nan nan nan nan -0 nan nan nan nan nan nan nan nan nan -0 -0 -0 -0 -0 -0 -0 -0 -0 -0 -0 -0 -0 -0 -0 -0 -0 -0 -0
nan nan nan nan nan nan nan nan nan nan nan nan nan nan nan nan nan nan nan nan nan nan nan nan nan nan nan nan nan nan nan nan nan nan nan nan nan nan nan nan nan nan nan nan nan nan nan nan nan nan nan nan nan nan nan nan nan nan nan nan nan nan nan nan nan nan nan -0 -0 -0 -0 -0 -0 -0 -0 -0 -0 -0 -0 -0 -0 -0 -0 -0 -0 -0
nan nan nan nan nan nan nan nan nan nan nan nan nan nan nan nan nan nan nan nan nan nan nan nan nan nan nan nan nan nan nan nan nan nan nan nan nan nan nan nan nan nan nan nan nan nan nan nan nan nan nan nan nan nan nan nan nan nan nan nan nan nan nan nan nan nan nan nan nan nan nan -0 -0 -0 -0 -0 -0 -0 -0 -0 -0 -0 -0 -0 -0 -0
-7 -3 -0 -0 -0 -0 -0 -0 -0 -0 nan nan nan nan nan nan nan nan nan nan nan nan nan nan nan nan nan nan nan nan nan nan nan nan nan nan nan nan nan nan nan nan nan nan nan nan nan nan nan nan nan nan nan nan nan nan nan nan nan nan nan nan nan nan nan nan nan nan nan nan nan -0 -0 -0 -0 -0 -0 -0 -0 -0 -0 -0 -0 -0 -0 -0
-0 -0 -0 -0 -0 -0 -0 -0 -0 -0 -0 nan nan nan nan nan nan nan nan nan nan nan nan nan nan nan nan nan nan nan nan nan nan nan nan nan nan nan nan nan nan nan nan nan nan nan nan nan nan nan nan nan nan nan nan nan nan nan nan nan nan nan nan nan nan nan nan nan nan nan nan -0 -0 -0 -0 -0 -0 -0 -0 -0 -0 -0 -0 -0 -0 nan
-0 -0 -0 -0 -0 -0 -0 -0 -0 -0 -0 -0 nan nan nan nan nan nan nan nan nan nan nan nan nan nan nan nan nan nan nan nan nan nan nan nan nan nan nan nan nan nan nan nan nan nan nan nan nan nan nan nan nan nan nan nan nan nan nan nan nan nan nan nan nan nan nan nan nan nan nan -0 -0 -0 -0 -0 -0 -0 -0 -0 -0 -0 -0 nan nan nan
nan -7 -3 -0 -0 -0 -0 nan -0 -0 -0 -0 nan nan nan nan nan nan nan nan nan nan nan nan nan nan nan nan nan nan nan -0 nan nan nan nan nan nan nan nan nan nan nan nan nan nan nan nan nan nan nan nan nan nan nan nan nan nan nan nan nan nan nan nan nan nan nan nan nan nan nan -0 -0 -0 -0 -0 -0 -0 -0 -0 -0 -0 -8 nan nan nan
nan nan nan nan nan nan nan nan nan nan -0 -0 -0 -0 nan nan nan nan nan nan nan nan nan nan nan nan nan nan nan nan nan -0 nan nan nan nan nan nan nan nan nan nan nan nan nan nan nan nan nan nan nan nan nan nan nan nan nan nan nan nan nan nan nan nan nan nan nan nan nan nan nan -0 -0 -0 -0 -0 -0 -0 -0 -0 -0 -0 nan nan nan nan
nan nan nan nan nan nan nan nan nan nan nan nan nan nan nan nan nan nan nan nan nan nan nan nan nan nan nan nan nan nan nan nan nan nan nan nan nan nan nan nan nan nan nan nan nan nan nan nan nan nan nan nan nan nan nan nan nan nan nan nan nan nan nan nan nan nan nan nan nan nan nan nan nan nan -0 -0 -0 -0 -0 -0 -0 -0 -0 -2 -2 nan
nan nan nan nan nan nan nan nan nan nan nan nan nan nan nan nan nan nan nan nan nan nan nan nan nan nan nan nan nan nan nan nan nan nan -7 nan -3 -3 nan nan nan nan nan nan nan nan nan nan nan nan nan nan nan nan nan nan nan nan nan nan nan nan nan nan nan nan nan nan nan nan nan nan nan nan nan -0 -0 -0 -0 -0 -0 -0 -0 -2 -2 -2
nan nan nan nan nan nan nan nan nan nan nan nan nan nan nan nan nan nan nan nan nan nan nan nan nan nan nan nan nan nan nan nan nan nan -4 -6 -2 -2 -5 -3 -3 nan nan nan nan nan nan nan nan nan nan nan nan nan nan nan nan nan nan nan nan nan nan nan nan nan nan nan nan nan nan nan nan nan nan nan -0 -0 -0 -0 -0 -0 -0 -0 -0 -1
nan nan nan nan nan nan nan nan nan nan nan nan nan nan nan nan nan nan nan nan nan nan nan nan nan nan nan nan nan nan nan nan nan nan -9 nan -3 -3 -2 nan nan nan nan -2 -2 nan nan nan nan nan nan nan nan nan nan nan nan nan nan nan nan nan nan nan nan nan nan nan nan nan nan nan nan nan nan nan -0 -0 -0 -0 -0 -0 -0 -0 -0 -0
nan nan nan nan nan nan nan nan nan nan nan nan nan nan nan nan nan nan nan nan nan nan nan nan nan nan nan nan nan nan nan nan nan nan nan nan -5 -5 -0 -2 -2 -5 -2 -1 -1 -1 nan nan nan -0 nan nan nan nan nan nan nan nan nan nan nan nan nan nan nan nan nan nan nan nan nan nan nan nan nan nan -0 -0 -0 -0 -0 -0 -0 -0 -0 -0
nan nan nan nan nan nan nan nan nan nan nan nan nan nan nan nan nan nan nan nan nan nan nan nan nan nan nan nan nan nan nan nan nan nan nan nan nan nan -1 -1 -1 -1 -2 -0 -0 -0 -1 -1 -1 nan nan nan nan nan nan nan nan nan nan nan nan nan nan nan nan nan nan nan nan nan nan nan nan nan nan nan nan nan nan -0 -0 -0 -0 -0 -0 -0
nan nan nan nan nan nan nan nan nan nan nan nan nan nan nan nan nan nan nan nan nan nan nan nan nan nan nan nan nan nan nan nan nan nan nan nan nan nan nan nan nan nan nan nan nan -3 -1 -0 -0 nan nan nan nan nan nan nan nan nan nan nan nan nan nan nan nan nan nan nan nan nan nan nan nan nan nan nan nan nan nan nan nan nan -0 -0 -0 -0
nan nan nan nan nan nan nan nan nan nan nan nan nan nan nan nan nan nan nan nan nan nan nan nan nan nan nan nan nan nan nan nan nan nan nan nan nan nan nan nan nan nan nan nan nan -5 -0 -1 -1 nan nan nan nan nan nan nan nan nan nan nan nan nan nan nan nan nan nan nan nan nan nan nan nan nan nan nan nan nan nan nan nan nan nan nan nan nan
nan nan nan nan nan nan nan nan nan nan nan nan nan nan nan nan nan nan nan nan nan nan nan nan nan nan nan nan nan nan nan nan nan nan nan nan nan nan nan nan nan nan nan nan nan -6 -4 -1 -1 -1 -0 nan nan nan nan nan nan nan nan nan nan nan nan nan nan nan nan nan nan nan nan nan nan nan nan nan nan nan nan nan nan nan nan nan nan nan
nan nan nan nan nan nan nan nan nan nan nan nan nan nan nan nan nan nan nan nan nan nan nan nan nan nan nan nan nan nan nan nan nan nan nan nan nan nan nan nan nan nan nan nan nan nan nan nan nan nan nan nan nan nan nan nan nan nan nan nan nan nan nan nan nan nan nan nan nan nan nan nan nan nan nan nan nan nan nan nan nan nan nan nan nan nan
nan nan nan nan nan nan nan nan nan nan nan nan nan nan nan nan nan nan nan nan nan nan nan nan nan nan nan nan nan nan nan nan nan nan nan nan nan nan nan nan nan nan nan nan nan nan nan nan nan nan nan nan nan nan nan nan nan nan nan nan nan nan nan nan nan nan nan nan nan nan nan nan nan nan nan nan nan nan nan nan nan nan nan nan nan nan
nan nan nan nan nan nan nan nan -0 -0 nan nan nan nan nan nan nan nan nan nan nan nan nan nan nan nan nan nan nan nan nan nan nan nan nan nan nan nan nan nan nan nan nan nan nan nan nan nan nan nan nan nan nan nan nan nan nan nan nan nan nan nan nan nan nan nan nan nan nan nan nan nan nan nan nan nan nan nan nan nan nan nan nan nan nan nan
nan nan nan nan nan nan nan nan nan nan nan nan nan nan nan nan nan nan nan nan nan nan nan nan nan nan nan nan nan nan nan nan nan nan nan nan nan nan nan nan nan nan nan nan nan nan nan nan nan nan nan nan nan nan nan nan nan nan nan nan nan nan nan nan nan nan nan nan nan nan nan nan nan nan nan nan nan nan nan nan nan nan nan nan nan nan
nan nan nan nan nan nan nan nan nan nan nan nan nan nan nan nan nan nan nan nan nan nan nan nan nan nan nan nan nan nan nan nan nan nan nan nan -7 -7 nan nan nan nan nan nan nan nan nan nan nan nan nan nan nan nan nan nan nan nan nan nan nan nan nan nan nan nan nan nan nan nan nan nan nan nan nan nan nan nan nan nan nan nan nan nan nan nan
nan nan nan nan nan nan nan nan nan nan nan nan nan nan nan nan nan nan nan nan nan nan nan nan nan nan nan nan nan nan nan nan nan nan nan nan nan nan nan nan nan nan nan nan nan nan nan nan nan nan nan nan nan nan nan nan nan nan nan nan nan nan nan nan nan nan nan nan nan nan nan nan nan nan nan nan nan nan nan nan nan nan nan nan nan nan
nan nan nan nan nan nan nan nan nan nan nan nan nan nan nan nan nan nan nan nan nan nan nan nan nan nan nan nan nan nan nan nan nan nan nan nan nan nan nan nan nan nan nan nan nan nan nan nan nan nan nan nan nan nan nan nan nan nan nan nan nan nan nan nan nan nan nan nan nan nan nan nan nan nan nan nan nan nan nan nan nan nan nan nan nan nan
nan nan nan nan nan nan nan nan nan nan nan nan nan nan nan nan nan nan nan nan nan nan nan nan nan nan nan nan nan nan nan nan nan nan nan nan nan nan nan nan nan nan nan nan nan nan nan nan nan nan nan nan nan nan nan nan nan nan nan nan nan nan nan nan nan nan nan nan nan nan nan nan nan nan -4 -5 nan nan nan nan nan nan nan nan nan nan
nan nan nan nan nan nan nan nan nan nan nan nan nan nan nan nan nan nan nan nan nan nan nan nan nan nan nan nan nan nan nan nan nan nan nan nan nan nan nan nan nan nan nan nan nan nan nan nan nan nan nan nan nan nan nan nan nan nan nan nan nan nan nan nan nan nan nan nan nan nan nan nan -6 -6 -3 -1 -2 -2 nan nan nan nan nan nan nan nan
nan nan nan nan nan nan nan nan nan nan nan nan nan nan nan nan nan nan nan nan nan nan nan nan nan nan nan nan nan nan nan nan nan nan nan nan nan nan nan nan nan nan nan nan nan nan nan nan nan nan nan nan nan nan nan nan nan nan nan nan nan nan nan nan nan nan nan nan nan nan nan -11 -3 -3 -2 -2 nan nan nan nan nan nan nan nan nan nan
nan nan nan nan nan nan nan nan nan nan nan nan nan nan nan nan nan nan nan nan nan nan nan nan nan nan nan nan nan nan nan nan nan nan nan nan nan nan nan nan nan nan nan nan nan nan nan nan nan nan nan nan nan nan nan nan nan nan nan nan nan nan nan nan nan -6 -6 -6 nan nan nan nan nan nan nan nan nan nan nan nan nan nan nan nan nan nan
Wind_Speed
1 1 1 1 2 3 2 1 2 3 2 1 0 0 1 1 0 0 1 2 2 1 1 1 1 0 0 1 1 2 2 2 2 2 2 2 1 2 2 2 2 3 3 3 3 4 4 4 5 5 6 7 7 8 9 10 11 11 12 12 12 12 12 12 12 13 13 13 13 13 13 13 13 13 13 13 14 14 14 14 14 14 14 14 14 14
1 1 1 1 2 2 2 1 2 2 3 2 1 1 0 1 1 0 0 1 1 1 1 0 0 0 0 1 1 2 2 2 3 3 3 2 2 2 2 3 3 3 4 4 4 4 4 5 5 5 5 6 7 7 8 9 10 11 11 11 12 12 12 12 12 13 13 13 13 13 13 13 13 13 13 14 14 14 14 14 14 14 14 14 14 14
1 1 1 1 1 2 2 1 1 1 2 2 1 1 1 1 1 1 1 1 1 1 1 1 0 0 1 1 1 2 2 2 2 3 3 3 3 3 3 3 3 4 4 5 5 5 5 5 5 5 5 5 6 6 7 8 9 10 10 11 11 11 12 12 12 12 12 13 13 13 13 13 13 13 13 14 14 14 14 14 14 14 14 14 14 14
2 1 2 1 1 1 1 1 1 1 1 2 1 1 1 2 1 1 1 1 1 1 1 1 1 1 1 1 2 2 2 1 2 2 3 3 3 3 3 4 4 4 5 5 5 6 6 6 6 6 5 5 5 5 6 7 8 9 10 10 11 11 11 11 12 12 12 12 13 13 13 13 13 13 14 14 14 14 14 14 14 14 14 14 15 15
2 2 2 2 1 1 2 2 2 2 2 2 1 1 1 1 1 0 0 1 1 1 1 1 1 1 1 1 2 2 2 2 1 1 2 2 3 3 4 4 4 5 5 6 6 6 7 7 7 7 6 5 5 5 5 6 7 8 9 10 10 11 11 11 11 12 12 12 12 13 13 13 13 13 14 14 14 14 14 15 15 15 15 15 15 15
2 2 2 2 1 1 2 1 2 2 2 1 1 1 1 1 1 1 1 1 2 2 1 1 1 2 2 2 3 4 4 4 4 4 4 4 4 4 4 4 4 5 5 6 6 7 7 7 7 7 7 6 5 4 5 5 6 7 8 9 10 10 11 11 11 11 12 12 12 12 13 13 13 13 14 14 14 14 14 15 15 15 15 15 15 15
2 1 2 1 1 1 1 1 1 1 1 1 1 1 1 1 2 2 2 2 2 2 2 1 1 1 2 3 5 5 5 5 5 6 6 6 6 6 6 6 6 6 6 6 6 6 7 7 7 7 7 6 5 4 4 5 6 7 8 9 9 10 10 11 11 11 11 12 12 12 12 13 13 13 13 14 14 14 14 15 15 15 15 15 15 15
2 2 1 1 1 1 1 1 1 1 0 1 1 1 2 2 2 2 2 2 3 3 2 2 2 2 3 4 4 4 3 4 4 5 6 7 7 7 7 7 7 7 7 6 6 6 6 7 7 7 6 6 5 5 5 6 6 7 8 9 9 10 10 11 11 11 11 11 12 12 12 12 12 13 13 13 13 14 14 14 15 15 15 15 15 15
3 2 2 1 2 2 2 1 1 2 1 1 1 2 2 2 2 2 2 3 3 3 3 3 3 3 3 3 4 4 4 3 3 4 5 5 5 6 7 8 8 8 8 7 7 7 7 7 7 7 7 7 7 6 6 7 7 8 8 9 9 10 10 11 11 11 11 11 11 12 12 12 12 12 13 13 13 13 14 14 14 15 15 15 15 16
3 3 2 2 1 2 2 2 1 1 2 1 2 3 3 2 2 2 2 2 3 3 3 3 3 3 3 4 4 4 4 4 5 6 7 6 6 6 7 7 7 7 8 8 9 9 10 10 10 10 9 9 9 9 8 8 8 8 9 9 10 10 11 11 11 11 11 11 11 11 11 12 12 12 12 13 13 13 13 14 14 14 15 15 15 15
2 2 3 2 2 2 2 2 1 0 0 2 3 3 3 2 2 2 2 1 2 2 3 3 3 3 3 3 4 4 4 4 4 5 6 7 8 8 7 7 7 8 9 9 10 11 11 11 11 11 11 11 10 10 9 9 9 9 9 9 10 10 11 11 11 11 11 11 11 11 11 11 12 12 12 12 13 13 13 13 14 14 14 15 15 15
2 2 2 2 2 2 2 2 1 0 0 1 2 2 2 2 1 2 2 1 1 2 2 2 2 2 2 2 3 3 4 3 3 3 4 5 6 6 6 6 6 7 7 8 9 10 12 12 12 12 11 11 10 10 10 9 9 10 10 10 11 11 11 12 12 11 11 11 10 10 11 11 11 12 12 12 13 13 13 13 14 14 14 14 15 15
2 2 2 2 2 2 1 1 1 1 1 1 2 2 1 1 1 1 2 1 0 1 1 1 1 1 1 2 2 3 3 3 3 2 3 4 4 5 4 3 3 4 4 5 6 7 9 10 11 11 11 11 11 11 11 10 10 11 11 11 11 11 12 12 12 11 11 10 10 10 10 11 11 12 12 12 13 13 13 13 14 14 14 14 14 15
2 2 2 2 2 1 1 1 2 2 2 2 2 2 1 1 1 1 1 1 0 1 1 1 1 1 1 2 2 2 3 3 3 3 3 3 3 3 3 3 2 2 2 3 4 5 7 8 8 8 10 10 10 10 11 11 11 11 11 12 12 11 11 11 11 11 10 10 9 10 10 11 11 12 12 12 12 13 13 13 14 14 14 14 14 14
2 2 3 2 2 1 1 1 2 2 2 1 1 1 1 1 1 1 2 1 1 1 1 1 1 1 1 1 2 3 3 3 3 3 3 3 3 3 3 2 2 2 2 3 4 4 6 6 5 5 7 8 9 9 10 10 11 12 12 11 11 11 11 10 10 10 9 9 9 9 10 11 11 12 12 12 12 13 13 13 14 14 14 14 14 14
3 3 3 3 2 2 1 1 2 3 2 1 1 1 2 1 1 1 2 1 1 1 2 2 2 1 1 1 1 3 3 3 3 2 2 2 3 3 3 3 3 3 3 3 4 4 5 5 5 5 5 8 10 11 12 11 11 11 11 11 10 10 9 9 9 8 8 8 9 10 10 11 12 12 12 12 12 12 13 13 14 14 14 14 14 14
2 3 3 3 3 2 1 2 2 2 2 2 1 1 1 1 1 1 1 1 1 2 2 2 2 1 1 1 2 3 4 3 2 2 1 1 2 3 3 3 3 3 3 3 3 4 4 5 5 5 5 8 11 12 12 12 11 11 10 10 9 8 8 8 8 8 8 9 10 10 11 12 12 12 12 12 12 12 13 13 14 14 14 15 15 15
2 3 3 4 3 2 1 2 2 2 2 2 2 2 2 1 1 1 1 1 1 2 1 2 1 1 0 1 2 3 4 3 2 1 2 1 2 2 2 2 2 2 2 2 3 3 4 4 4 5 6 10 12 12 12 11 11 10 9 8 8 8 8 9 9 9 9 10 11 11 12 12 12 12 12 12 12 12 13 13 14 14 15 15 15 16
2 2 3 3 3 2 2 2 1 2 2 2 2 2 2 1 1 1 1 1 1 2 2 1 1 1 1 1 1 2 3 2 1 1 2 1 1 2 3 3 3 2 2 2 2 3 4 4 6 8 10 11 12 12 12 11 10 9 8 8 9 9 10 10 10 10 11 11 11 12 12 12 12 12 12 12 12 13 13 14 14 15 15 16 16 16
3 3 3 3 3 3 2 2 2 2 2 2 2 2 2 1 1 2 1 1 1 1 2 2 1 1 1 1 2 3 3 2 1 2 2 0 1 2 3 4 4 4 3 2 2 2 3 4 5 7 10 11 11 11 11 10 10 9 9 9 10 10 11 11 11 11 11 12 12 12 12 12 12 12 12 12 13 13 14 14 15 15 16 16 16 17
3 3 1 2 2 3 2 1 1 1 2 2 2 2 2 2 1 1 1 1 1 1 1 1 1 1 1 1 1 2 3 2 2 2 1 1 1 2 2 3 3 4 4 3 3 3 4 4 4 5 7 9 10 11 11 10 9 9 9 10 10 11 11 11 11 11 12 12 12 12 12 12 12 12 13 13 13 14 14 15 15 16 16 16 17 17
3 2 1 1 2 2 2 2 1 1 2 2 2 2 2 2 1 1 1 1 1 2 2 1 1 1 1 1 1 1 2 2 1 1 1 1 1 2 2 2 3 3 4 4 4 4 4 4 4 4 7 9 10 10 10 10 9 9 10 10 11 11 11 12 12 12 12 12 12 12 12 12 13 13 13 14 14 14 15 15 16 16 17 17 17 17
4 3 2 2 3 3 3 3 2 1 1 2 2 2 2 2 2 2 2 2 2 2 2 1 1 1 1 1 1 1 2 2 1 1 2 1 1 2 2 2 3 3 3 4 4 4 5 4 4 4 5 8 9 10 10 10 10 10 10 11 11 11 12 12 12 12 12 12 12 12 13 13 13 14 14 14 15 15 16 16 16 17 17 17 17 17
4 4 3 3 3 3 3 3 2 1 2 2 3 2 2 2 3 2 2 2 2 2 2 2 1 1 1 1 1 2 3 2 1 1 2 1 1 2 2 3 4 4 4 4 4 4 5 5 4 3 3 6 8 9 10 10 10 11 11 11 12 12 12 12 12 12 12 12 13 13 14 14 14 15 15 15 16 16 16 16 17 17 17 17 17 16
3 3 3 3 4 5 5 4 4 3 3 3 3 3 3 4 4 3 2 2 2 2 2 2 2 2 2 2 2 2 3 3 2 2 2 1 1 2 2 2 3 4 5 4 4 4 4 4 4 2 1 4 6 9 10 10 11 12 12 12 12 12 12 12 12 12 13 13 14 14 15 15 15 15 16 16 16 16 16 17 17 17 17 17 16 15
4 5 6 7 9 10 11 10 9 8 7 5 4 3 3 4 4 3 2 2 2 2 3 3 2 1 1 1 2 2 2 3 3 3 2 1 1 2 2 2 2 3 4 5 4 4 4 4 4 3 2 3 5 8 10 11 12 13 13 13 13 12 12 12 12 13 13 14 15 15 15 16 16 16 16 16 16 16 16 17 17 17 17 16 15 14
8 9 11 12 12 13 14 14 13 12 10 8 6 5 4 3 3 3 3 2 1 2 3 3 2 1 2 2 1 2 2 2 2 2 2 2 1 2 2 1 2 2 4 4 4 4 5 4 4 3 3 3 4 6 10 12 13 14 14 14 13 13 13 13 13 14 14 15 16 16 16 16 16 16 16 16 16 16 16 17 17 17 16 14 12 10
11 11 11 12 13 13 14 14 13 12 11 10 9 7 4 3 3 3 2 0 0 2 3 3 2 1 1 1 1 2 2 1 1 1 1 2 1 1 2 1 1 2 3 4 4 4 5 4 3 3 3 3 4 5 8 11 13 14 14 14 14 14 13 13 14 15 15 16 16 16 16 16 16 16 16 16 16 16 17 17 17 16 14 10 7 5
11 11 11 11 12 12 12 12 12 12 11 11 9 7 4 3 3 3 2 2 2 3 3 3 2 1 0 1 1 2 1 0 1 1 2 2 1 1 2 1 1 2 3 3 3 3 3 2 2 2 3 4 4 4 6 8 10 11 11 12 13 13 13 13 14 15 15 16 16 16 16 16 16 16 16 16 16 17 17 17 16 14 10 7 5 4
7 8 8 9 9 9 9 8 9 10 11 11 10 8 5 4 3 3 3 3 3 3 3 2 2 1 1 0 1 2 1 0 1 1 2 2 1 2 2 1 1 2 2 3 3 3 2 2 2 2 2 3 4 4 4 5 6 6 7 8 9 10 11 12 13 14 15 16 16 16 16 16 16 16 16 16 17 17 17 17 15 11 6 5 4 4
4 4 4 4 5 5 5 5 6 7 9 9 9 7 5 4 3 3 3 3 3 3 3 3 2 1 1 1 1 1 1 1 1 1 2 1 1 1 1 1 1 1 1 1 2 3 3 3 2 2 2 2 3 4 4 4 4 4 4 4 5 6 9 10 12 13 14 15 15 15 15 15 16 16 16 16 17 17 17 16 14 10 6 5 5 5
4 4 3 3 3 3 4 4 4 4 5 5 5 4 4 4 3 3 3 3 3 3 3 3 2 2 1 1 1 0 1 2 2 1 1 1 1 1 1 1 1 1 1 0 0 1 2 3 3 2 2 2 3 3 4 4 4 3 3 3 3 4 7 9 10 11 11 13 14 14 14 15 15 16 16 16 16 16 16 16 14 11 7 6 6 6
4 3 3 3 3 3 3 3 3 3 3 3 3 3 3 3 3 3 3 3 3 3 3 3 3 2 2 2 1 1 2 2 3 2 0 0 0 1 1 1 1 2 1 1 1 2 2 3 3 3 3 3 3 3 3 3 3 3 2 2 2 3 5 6 7 8 8 9 10 11 12 13 14 14 15 15 16 16 16 16 15 13 10 8 7 7
4 4 3 3 3 2 2 2 2 2 3 2 2 2 2 2 3 3 3 3 3 3 3 3 3 2 2 2 1 1 2 2 3 3 1 1 1 1 1 2 2 2 2 1 2 2 2 3 3 4 4 3 2 2 2 3 3 2 1 1 2 3 4 5 5 5 6 6 6 7 8 9 10 11 12 13 14 15 15 16 16 16 14 10 8 7
3 3 3 2 2 2 2 1 1 1 2 2 2 2 2 2 2 2 2 2 2 2 2 3 3 3 3 2 1 1 2 2 3 3 2 1 1 1 2 2 2 2 2 2 2 2 2 3 4 5 5 4 3 2 2 2 2 2 1 2 3 3 4 4 4 4 5 5 5 5 5 5 6 7 8 11 12 14 15 16 17 17 16 14 12 9
3 3 2 2 2 1 1 1 1 1 1 1 1 1 1 1 1 1 1 2 2 2 1 2 2 2 3 2 2 2 2 2 3 3 3 2 1 1 2 2 2 2 2 2 2 3 3 4 5 5 5 5 4 3 2 2 2 2 2 3 3 4 4 4 4 4 3 4 4 4 4 4 5 5 6 10 12 14 15 16 16 16 16 16 14 12
3 2 2 1 1 1 1 0 0 0 0 0 0 0 1 1 1 1 1 1 1 1 2 2 1 2 2 3 3 3 3 3 3 3 2 1 1 1 2 2 2 2 2 3 3 3 3 4 5 5 4 4 4 4 4 3 3 3 3 3 3 4 4 4 4 3 3 3 4 5 5 4 5 5 6 10 11 12 13 14 14 15 15 15 15 15
3 2 2 1 1 1 1 0 0 1 1 1 1 1 1 1 1 1 1 1 1 2 2 2 2 2 4 4 4 3 3 3 3 3 2 2 2 2 2 2 2 2 2 3 3 3 3 4 5 5 4 4 4 5 5 5 5 5 5 4 4 4 4 3 3 2 2 4 5 6 6 5 5 5 5 6 7 7 7 7 9 11 13 13 13 14
3 3 2 2 2 2 2 1 1 1 1 1 1 2 1 1 1 1 1 1 2 2 2 2 2 2 3 3 3 3 3 3 3 3 2 3 3 2 2 2 2 2 2 2 2 3 3 3 4 5 5 5 5 5 5 4 5 5 6 6 5 4 3 2 2 2 3 3 5 6 6 5 4 4 4 4 4 4 5 5 6 7 8 7 9 11
3 3 3 3 3 2 2 2 2 2 1 2 2 2 1 1 1 1 1 1 1 2 2 1 1 1 1 1 2 2 3 3 3 2 2 3 3 2 2 2 2 2 2 2 2 2 3 3 4 5 6 6 6 6 5 5 5 6 7 6 5 5 4 3 3 3 2 3 4 4 5 5 4 4 4 4 4 4 4 4 5 6 6 5 5 6
3 3 3 3 2 2 2 2 2 2 2 2 2 2 1 1 1 1 0 0 0 1 1 1 0 1 1 1 2 2 3 3 3 2 1 2 3 2 2 2 2 2 2 2 2 2 2 3 4 5 5 6 7 8 7 6 7 8 9 7 6 6 7 7 5 3 2 3 3 4 6 6 6 6 5 5 5 4 4 5 5 6 5 4 3 4
4 3 3 2 2 2 2 2 2 3 3 2 2 2 1 1 1 1 1 1 1 0 0 1 1 1 1 2 2 3 3 4 3 2 1 3 3 3 2 2 2 1 1 1 2 2 3 3 4 5 5 5 6 6 6 7 7 7 7 6 7 8 8 7 4 2 2 3 4 5 7 7 6 6 6 6 6 5 5 5 6 7 6 4 4 4
3 3 2 2 2 2 3 3 3 2 2 2 1 1 1 1 1 2 2 1 0 0 0 0 1 1 0 1 2 3 3 3 2 1 1 3 3 3 3 2 2 2 1 2 2 3 3 4 4 4 4 4 4 6 7 8 8 7 6 6 6 6 6 4 3 3 3 4 4 5 6 6 6 6 6 6 6 5 5 6 8 8 8 5 5 4
2 2 2 2 2 3 3 2 2 2 2 2 2 1 0 0 1 1 2 1 1 1 0 0 1 1 1 0 1 2 3 3 2 1 2 3 4 3 3 3 2 2 2 2 3 3 3 4 4 4 3 3 4 6 7 7 7 7 6 6 6 6 5 5 5 5 5 5 5 4 5 6 6 6 6 6 6 6 5 5 5 5 6 6 6 6
2 2 2 2 2 3 2 2 2 2 2 2 2 1 1 1 1 1 2 1 1 1 1 1 1 1 1 1 1 1 2 2 1 1 1 0 1 1 1 1 2 2 2 3 3 3 3 4 4 4 3 3 5 6 7 7 8 8 7 7 7 7 7 6 6 6 6 6 5 5 6 6 6 6 6 7 7 7 6 6 5 5 5 5 5 6
2 2 2 2 3 3 4 3 3 3 3 2 2 1 1 1 1 1 2 2 1 1 1 1 1 1 1 1 1 2 2 2 1 1 1 2 3 4 3 3 3 4 4 4 4 4 4 4 4 4 4 5 6 7 7 6 7 7 7 6 6 6 7 6 6 5 5 5 5 5 6 6 5 6 7 8 8 8 7 6 6 6 6 5 5 6
3 3 3 3 3 3 3 3 3 3 3 2 1 1 1 1 1 1 1 1 2 1 1 1 2 1 0 1 2 2 3 3 3 3 3 2 2 2 3 3 4 5 4 4 5 5 5 5 5 4 4 5 6 7 6 6 6 6 6 6 6 6 7 6 5 4 5 5 5 5 4 5 5 6 8 8 9 9 8 7 7 6 5 5 5 5
4 4 4 4 3 3 3 3 3 3 3 2 1 1 1 2 2 2 1 1 1 2 2 2 1 1 1 1 1 2 3 3 3 3 3 3 3 2 3 3 3 4 4 5 5 5 5 6 6 6 5 5 6 7 6 5 5 5 5 5 6 7 8 7 6 5 4 5 5 5 4 4 6 7 8 9 9 10 10 10 9 7 5 5 5 6
4 4 4 4 4 3 3 3 3 3 4 3 2 1 1 2 2 2 2 1 2 2 2 2 1 1 1 2 2 2 2 3 3 3 3 3 3 3 3 3 3 3 3 3 3 4 4 5 6 7 7 7 7 7 7 6 5 5 5 4 5 6 7 7 6 5 4 5 5 4 4 4 5 6 7 9 10 11 12 12 10 9 6 5 5 6
3 3 4 4 4 4 4 4 4 4 4 3 3 2 1 1 1 0 1 1 2 2 2 2 1 1 1 2 2 2 2 3 3 3 3 3 3 3 3 4 4 4 3 3 3 3 3 3 4 6 8 9 9 8 6 6 5 5 5 5 5 5 7 7 6 5 4 4 4 4 4 4 5 5 6 8 10 12 12 12 11 10 7 5 5 6
3 3 3 3 4 4 4 4 4 4 4 4 3 2 1 1 0 0 0 1 1 2 2 1 1 0 1 2 2 3 3 3 3 3 3 3 3 3 4 4 4 5 5 5 4 4 4 4 4 4 5 8 10 9 6 5 4 5 5 5 4 4 5 5 5 4 4 5 5 5 5 5 5 5 5 6 8 10 11 11 12 11 8 6 5 6
Wind_Direction
85 72 59 97 125 133 156 168 163 161 170 162 125 50 20 58 78 168 195 158 145 142 162 186 186 185 257 296 291 283 277 273 272 272 273 283 295 308 317 319 322 322 326 330 334 337 341 344 347 351 355 359 3 6 9 10 11 10 10 9 8 7 7 6 6 5 5 4 4 3 1 360 359 359 358 358 357 357 356 354 352 351 350 350 351 351
101 79 60 95 121 130 148 173 174 167 162 156 148 123 70 70 60 54 110 138 137 134 134 164 183 164 49 313 297 287 278 271 269 271 271 272 277 284 293 301 307 311 314 317 320 323 327 328 331 336 342 348 354 359 3 5 7 7 7 6 5 4 4 3 3 3 2 2 1 0 359 358 358 358 357 356 356 355 354 353 351 350 350 350 350 350
121 114 116 119 122 126 133 167 184 172 143 138 138 133 119 99 93 90 95 128 122 111 88 56 22 8 16 347 316 301 290 275 269 271 274 274 275 278 283 288 295 301 306 310 314 317 319 320 321 323 327 335 343 350 356 360 2 4 4 3 2 1 0 0 0 0 0 360 359 358 357 357 357 357 356 355 355 354 353 352 350 350 349 349 349 349
141 148 151 144 120 106 111 138 149 139 110 103 105 113 113 101 103 113 132 126 109 88 67 41 24 13 20 359 334 321 313 295 281 279 282 283 285 287 287 290 295 300 303 308 312 315 317 318 318 318 318 323 330 340 348 354 358 360 0 360 358 357 357 357 358 358 358 358 357 357 356 356 356 355 355 354 353 352 352 350 349 349 348 348 348 347
155 156 149 144 131 107 93 109 120 121 109 99 98 103 100 100 105 110 76 77 75 70 55 35 25 21 22 7 349 346 355 6 6 348 326 320 317 314 310 311 312 311 311 313 315 317 319 320 319 318 316 315 319 328 339 348 353 356 357 356 355 354 353 353 354 355 355 355 355 355 355 354 354 354 353 353 352 351 351 349 348 348 347 347 346 346
148 140 133 135 126 113 102 105 114 119 115 113 115 114 95 95 81 61 46 45 46 49 49 42 35 30 26 14 9 11 21 33 41 43 35 25 14 4 354 347 339 333 328 325 323 323 323 323 322 320 316 312 313 320 331 342 348 352 353 352 351 350 349 349 350 351 352 353 353 353 353 353 353 352 352 351 351 350 350 349 347 346 346 345 345 344
126 116 111 109 100 94 96 94 93 107 133 136 120 81 57 60 57 53 51 46 42 39 36 41 45 40 30 18 16 19 27 39 47 49 47 41 36 30 23 16 7 358 349 342 337 334 332 330 328 325 321 316 316 320 329 339 346 349 349 347 346 345 344 344 345 346 348 349 350 351 351 351 351 351 351 350 350 349 349 348 347 346 345 344 343 343
128 120 112 113 108 102 94 72 44 26 86 135 114 76 37 37 36 38 43 47 42 36 29 27 29 30 26 15 11 13 24 41 49 49 46 40 35 31 28 25 21 15 9 4 359 354 351 347 344 340 336 334 335 337 339 345 346 346 345 342 341 339 338 339 339 341 343 345 346 348 348 349 349 349 349 348 348 348 347 347 346 345 344 343 342 341
136 132 124 120 123 125 119 79 29 359 335 64 103 101 79 48 31 25 29 36 35 32 31 29 25 17 9 6 5 8 17 38 49 50 44 35 29 26 27 26 25 23 23 23 22 20 18 14 10 7 4 3 2 360 357 354 350 345 340 337 335 333 332 332 333 334 337 339 342 343 345 345 346 346 346 346 346 346 346 346 345 344 343 342 341 340
126 124 117 101 98 107 117 102 63 356 337 47 79 90 93 80 60 41 29 19 17 23 34 37 30 16 359 357 1 6 13 25 38 44 43 34 30 29 29 29 30 32 35 37 38 38 36 32 30 28 24 20 17 13 6 359 351 344 336 332 329 327 326 326 327 328 330 333 336 339 340 342 342 343 343 344 344 344 344 344 343 343 342 341 340 339
115 113 110 98 81 71 83 97 102 89 7 77 74 69 64 70 82 86 68 17 359 5 22 32 36 28 10 356 355 360 8 13 21 27 32 30 28 28 29 31 35 38 42 44 45 44 41 36 34 32 28 24 19 13 6 358 349 340 333 328 324 322 321 321 321 323 324 327 331 334 336 338 339 340 340 341 342 342 342 342 342 341 340 339 338 337
109 106 101 100 91 80 74 90 103 123 69 87 80 69 47 33 59 100 120 116 5 352 359 8 26 38 35 9 354 352 1 5 2 1 10 20 21 20 21 26 32 36 40 43 42 40 37 32 29 26 22 18 12 7 1 353 345 338 331 326 323 320 318 318 318 319 320 322 326 329 332 334 335 337 338 339 339 340 340 340 340 339 339 338 337 336
89 87 88 89 90 93 103 117 111 75 42 64 83 91 83 18 31 86 115 126 107 338 338 346 5 25 35 25 10 358 354 352 350 354 12 19 17 12 7 13 20 25 29 37 35 32 28 24 20 16 13 8 3 359 354 348 342 336 331 326 323 320 318 317 316 316 316 319 322 326 329 331 332 334 335 336 338 338 339 338 338 338 337 336 336 335
93 88 88 88 87 90 107 121 113 99 72 67 77 92 102 97 88 86 90 80 7 320 334 21 27 21 14 20 16 6 352 349 351 3 23 26 19 8 355 357 1 7 18 34 32 24 18 16 12 7 4 0 357 353 349 345 340 335 331 327 324 321 319 317 316 315 315 317 320 324 327 328 330 331 333 334 336 337 337 337 337 336 336 335 334 333
115 109 104 99 93 88 90 102 101 99 95 85 84 90 93 79 73 74 79 53 349 340 19 42 45 35 22 17 8 2 354 3 8 11 14 16 15 9 356 353 355 5 22 35 29 17 10 12 7 357 351 349 348 347 345 341 337 333 331 328 325 323 321 318 317 316 316 319 323 325 327 328 329 330 331 333 334 335 335 336 335 335 334 334 333 332
118 116 115 109 103 92 82 93 99 102 104 101 97 93 90 70 62 70 89 86 23 14 38 48 50 41 3 10 15 11 1 10 15 16 11 4 4 4 1 3 8 12 16 28 20 8 1 3 359 351 341 341 342 343 343 340 336 334 332 330 328 327 325 323 323 324 325 328 329 329 329 329 329 330 331 332 333 333 334 334 334 333 333 332 331 330
109 114 116 112 107 100 86 81 88 94 98 93 83 75 74 80 87 95 102 106 74 53 55 72 77 68 326 340 12 16 8 7 7 15 33 8 356 355 1 12 16 12 3 13 11 3 359 356 351 344 336 338 340 341 342 339 337 336 335 336 337 338 339 340 340 341 340 339 337 335 333 331 331 331 331 331 332 332 332 332 332 332 332 331 330 329
104 112 116 114 112 108 94 80 77 81 83 83 80 75 72 83 90 95 97 98 90 83 80 90 107 128 167 326 346 360 5 359 1 21 47 28 349 338 349 11 19 13 358 357 355 353 353 348 342 337 332 337 339 340 341 340 340 341 344 350 355 359 1 358 357 354 350 346 343 340 336 334 333 332 332 332 332 332 332 331 331 331 330 329 329 327
99 103 110 113 113 109 92 79 78 80 85 97 108 106 90 71 63 63 65 72 88 103 117 115 129 156 173 259 312 335 351 344 17 57 58 38 337 327 343 359 9 10 2 349 344 343 343 337 335 334 333 335 338 340 342 342 344 349 359 6 10 11 10 5 1 357 352 348 345 342 338 336 334 333 333 333 332 332 331 330 330 329 329 328 327 326
97 94 101 110 111 104 87 73 69 79 95 114 117 112 103 82 61 56 60 63 76 99 117 120 134 175 200 260 301 324 339 346 29 65 70 33 312 322 348 1 5 3 351 339 332 334 338 332 329 329 331 334 338 341 343 345 350 358 8 12 12 10 6 1 357 353 350 347 344 341 339 336 335 334 334 333 332 331 330 329 328 327 326 325 325 324
96 89 80 95 102 102 96 89 80 85 103 110 104 98 96 89 74 64 74 92 101 104 103 108 126 166 189 249 308 329 340 354 25 56 61 12 331 329 348 1 5 360 346 336 334 336 336 329 325 325 326 334 338 342 345 348 353 0 6 7 5 2 359 355 352 350 347 345 342 340 338 336 335 334 333 332 331 329 328 326 325 325 324 323 322 321
98 95 78 75 86 95 105 117 112 107 119 112 106 105 111 107 103 101 117 127 132 135 135 137 145 162 178 217 264 309 345 4 38 87 77 20 341 326 338 349 1 1 345 334 333 335 333 325 319 318 323 333 339 344 347 350 354 358 0 359 357 355 353 351 349 347 345 343 341 339 337 336 334 333 332 330 329 328 326 325 324 323 322 321 320 319
99 107 110 90 88 94 105 114 118 112 95 99 108 117 131 131 137 147 162 160 154 149 145 140 137 137 163 217 257 314 5 12 49 112 92 42 316 309 331 344 360 2 341 329 328 330 328 319 313 314 323 336 342 346 349 351 353 354 354 353 352 351 350 348 347 346 344 343 341 339 337 335 334 332 331 330 328 327 325 324 323 322 321 320 319 318
101 108 109 102 99 101 105 111 114 102 67 75 84 95 107 114 119 124 132 140 138 134 128 118 97 55 9 357 358 6 16 14 29 81 87 68 315 304 331 360 4 356 333 323 321 322 320 311 307 308 325 341 344 345 347 349 350 351 351 350 349 348 347 347 346 345 344 343 341 340 338 336 334 333 332 330 329 327 326 324 323 322 320 320 319 318
108 113 118 123 122 119 114 114 112 107 96 90 91 96 101 102 101 100 98 96 97 99 97 87 69 42 360 360 2 3 3 8 23 53 78 59 336 312 328 19 15 354 327 317 315 317 314 306 303 308 338 339 340 340 342 345 347 347 347 347 346 346 346 345 345 344 344 342 341 339 337 336 335 334 332 331 330 328 327 326 324 323 321 320 319 319
123 130 136 137 132 126 118 113 109 107 109 112 115 117 114 107 100 89 69 54 51 61 71 66 56 31 346 359 358 350 342 1 22 43 72 68 358 324 325 22 22 354 322 314 316 318 312 301 299 306 326 324 326 330 336 340 343 344 343 343 343 343 344 344 344 343 342 341 339 338 336 335 334 334 333 332 331 330 328 327 325 323 322 320 320 320
115 126 135 137 132 125 117 109 104 103 105 113 123 132 130 115 94 73 48 21 15 44 71 72 60 19 352 7 3 341 327 356 23 48 71 80 42 339 317 353 9 349 321 312 310 308 302 295 296 303 311 302 303 317 332 337 339 339 338 338 338 339 340 340 341 340 339 338 337 335 334 334 333 333 332 332 331 330 329 327 326 324 322 321 320 320
97 106 116 121 120 115 108 102 99 97 96 101 111 123 130 113 94 87 85 132 66 70 81 90 88 62 2 346 330 318 309 348 38 77 100 87 62 344 304 327 349 340 319 308 304 299 295 290 291 297 299 295 299 315 331 335 335 334 332 331 332 333 334 336 336 336 335 334 333 332 331 331 331 331 331 331 331 330 329 327 326 324 322 321 318 313
83 86 90 96 99 98 96 94 93 92 91 91 93 97 100 97 103 116 153 162 124 91 86 94 101 108 127 298 312 318 309 27 103 123 127 88 55 310 291 320 333 326 320 312 309 307 302 292 288 289 291 302 313 325 329 330 328 325 322 323 324 325 327 329 330 331 330 329 329 328 328 328 328 329 329 329 329 329 328 327 326 324 322 318 312 304
78 79 79 82 85 87 88 89 91 93 93 93 92 90 86 91 105 125 151 142 117 101 99 100 107 119 142 69 4 359 359 95 136 135 117 71 11 312 304 323 322 318 325 327 326 322 315 302 290 282 286 309 316 319 315 314 310 307 307 313 315 317 319 321 323 325 325 325 324 324 324 325 326 326 327 327 327 327 327 327 326 324 318 312 307 302
96 93 86 82 81 82 85 88 92 95 97 98 98 98 97 101 111 125 137 127 115 109 112 114 118 126 133 92 51 20 334 257 210 135 106 60 359 313 305 315 308 300 301 340 336 325 315 308 296 287 286 302 304 301 296 293 291 290 293 302 305 306 309 314 318 320 320 320 320 320 321 322 323 324 324 325 325 325 325 326 325 324 317 313 308 304
121 116 112 105 96 88 89 91 95 98 101 103 106 110 114 118 124 130 133 127 121 118 119 121 125 131 132 117 115 151 260 261 264 258 110 64 354 287 224 265 289 289 239 207 260 292 301 300 297 294 289 288 285 283 282 282 281 281 287 294 294 297 303 309 314 316 315 316 316 316 317 318 319 320 321 321 322 322 323 324 324 324 320 316 311 306
125 120 117 111 102 94 94 95 100 106 111 113 115 118 121 128 133 136 136 134 131 128 127 129 132 136 140 142 157 193 236 254 262 268 305 30 321 282 244 262 284 289 270 223 212 224 252 275 288 295 294 283 272 267 270 273 272 273 280 286 285 290 298 304 308 308 307 309 310 311 313 314 315 316 317 318 318 319 320 321 322 322 321 317 312 308
120 116 112 106 98 90 86 85 92 103 113 118 123 125 127 132 134 135 137 137 135 134 136 138 140 144 150 155 177 210 234 246 255 268 318 317 296 288 282 282 289 294 293 271 254 247 254 266 282 293 297 291 277 259 258 264 268 272 274 261 267 278 288 296 298 297 296 299 301 303 306 308 309 310 312 313 314 315 317 318 319 319 318 315 312 308
111 108 104 99 94 89 83 74 78 90 105 115 122 127 131 131 132 132 133 132 132 134 137 142 145 147 151 160 187 234 249 249 254 264 294 279 274 280 282 279 283 291 294 289 284 280 277 279 287 294 299 301 295 277 257 256 264 275 275 251 252 261 271 278 283 287 290 293 293 293 294 296 298 301 304 307 309 311 314 315 316 316 316 314 311 308
108 105 100 93 93 97 95 84 78 87 105 116 124 129 132 133 133 135 135 135 136 140 145 150 151 151 150 156 176 216 247 249 254 261 275 264 256 261 275 276 283 289 291 291 290 291 291 291 294 297 299 301 301 297 284 269 268 273 275 261 257 258 261 261 263 269 282 288 289 289 289 288 288 289 293 301 305 308 310 312 313 313 312 311 310 308
117 117 114 99 99 106 116 101 86 200 192 204 198 172 146 134 136 144 146 151 155 159 163 173 180 185 181 173 181 200 227 240 248 253 257 239 227 235 258 272 279 280 279 283 288 293 296 298 300 300 297 293 295 300 306 309 308 302 292 283 275 269 266 262 259 258 267 274 280 284 287 287 287 288 291 299 303 306 307 308 308 308 309 308 308 307
137 143 148 139 130 129 133 154 212 228 218 198 182 165 148 142 142 150 154 181 189 189 183 181 192 207 211 207 206 210 222 235 242 240 226 198 193 205 231 255 264 263 258 265 276 286 294 297 302 304 300 293 291 296 305 312 313 311 306 300 289 276 266 261 254 250 253 267 277 284 288 290 291 292 291 295 298 300 301 301 302 304 306 306 305 304
159 166 172 172 167 162 161 178 200 210 202 170 148 137 129 136 148 159 165 189 206 209 204 195 196 205 215 220 225 231 240 246 244 231 200 177 174 184 208 231 246 252 254 256 265 273 281 288 294 300 302 302 301 302 304 306 307 308 310 308 303 290 267 256 244 243 252 271 285 292 295 294 293 290 285 284 285 288 292 294 296 299 303 304 303 301
171 175 179 178 175 173 175 179 181 174 147 120 108 103 102 116 141 160 171 184 197 204 208 203 202 210 229 247 256 260 264 264 257 239 191 172 172 183 203 226 246 261 269 271 273 276 280 285 289 292 296 298 300 301 303 303 305 308 312 312 311 309 309 304 290 274 265 273 286 295 298 296 291 287 284 282 281 281 285 289 292 295 296 295 295 297
174 180 186 181 176 172 171 159 140 121 109 103 94 88 98 114 122 124 116 124 130 129 127 114 69 5 342 319 296 281 274 271 267 254 182 164 167 179 201 226 247 264 276 276 273 270 272 281 285 287 289 291 292 293 293 294 299 302 304 302 300 301 305 303 300 294 287 286 290 295 300 302 302 300 297 295 289 280 274 277 281 284 284 274 269 277
179 184 187 176 168 158 144 117 107 104 101 101 105 114 135 134 129 119 100 67 32 20 71 88 69 27 351 328 314 301 288 279 276 265 160 160 164 173 188 208 225 237 238 252 255 254 254 263 271 277 281 285 289 290 291 291 293 293 292 292 296 298 298 295 293 295 301 300 301 303 305 305 305 304 302 299 293 284 276 271 272 276 279 272 263 259
183 185 178 159 146 136 127 119 118 119 117 111 115 125 139 133 133 130 126 122 135 254 271 118 104 89 20 325 316 310 300 294 297 304 140 157 161 166 179 191 197 203 212 253 268 268 260 258 261 264 266 269 276 282 287 291 291 289 285 287 294 299 298 299 301 305 302 302 304 305 303 302 301 300 299 296 293 288 281 275 273 273 274 273 269 264
167 156 136 129 126 126 129 136 140 140 135 126 122 124 120 186 152 142 134 146 165 185 207 151 112 101 88 317 299 298 296 297 305 307 165 165 165 164 167 186 203 221 237 259 275 282 284 275 269 263 260 262 268 275 281 285 287 287 285 284 283 281 279 291 302 307 304 303 302 300 297 297 298 299 300 297 293 289 284 276 271 268 266 264 263 263
127 117 114 128 138 145 150 153 149 139 129 126 130 141 186 232 195 154 142 151 156 161 170 128 88 71 37 326 297 290 292 300 314 336 137 155 48 55 120 211 236 246 247 247 250 260 273 280 280 277 271 267 268 271 274 279 282 284 284 284 282 278 275 284 292 297 297 298 297 295 293 294 298 301 301 298 295 292 288 284 280 275 270 264 261 261
121 125 134 149 158 162 161 154 142 128 120 122 131 151 194 220 205 164 154 151 146 144 153 110 92 78 20 313 306 307 313 317 328 343 354 347 349 348 333 305 288 278 269 260 252 246 247 258 269 277 284 280 274 270 266 270 275 280 282 285 285 284 282 283 283 283 284 287 287 287 288 292 296 298 297 297 296 294 291 285 280 276 274 268 263 260
146 152 158 162 163 162 156 143 132 124 123 129 143 177 219 223 201 175 154 145 137 128 111 88 87 88 23 302 312 323 329 326 323 322 323 322 317 311 303 295 286 279 272 267 259 251 246 246 248 256 269 278 278 274 268 266 268 272 278 282 285 285 285 284 281 276 273 276 279 282 287 293 294 293 292 294 295 294 292 288 283 277 274 272 270 267
166 168 168 166 163 159 153 145 137 132 135 143 160 204 244 234 206 178 148 142 129 113 95 77 69 53 334 319 325 330 330 321 317 313 311 307 301 296 292 287 282 277 271 267 263 259 253 246 240 238 241 255 265 271 273 269 268 268 272 278 281 283 283 283 282 279 275 273 273 275 280 286 289 291 294 295 295 294 294 293 290 287 282 280 277 275
175 177 175 171 168 165 164 159 150 144 147 151 161 195 252 258 230 182 149 144 129 114 104 89 63 9 332 326 326 325 320 310 305 303 303 303 303 304 303 296 292 287 280 276 272 268 264 254 242 234 229 234 245 257 266 268 268 269 271 271 273 276 278 280 281 280 277 276 275 273 274 278 283 288 294 295 295 295 295 295 293 291 288 281 275 271
179 181 180 179 178 175 171 163 158 155 156 156 160 174 222 262 266 173 145 134 123 118 117 112 93 16 326 316 312 310 307 305 306 307 306 304 307 309 310 306 306 307 305 304 302 299 298 284 263 245 232 230 233 241 254 261 267 271 272 267 266 267 272 276 279 282 285 289 291 292 292 291 291 293 294 294 294 294 294 293 292 290 289 281 271 266
180 182 182 186 185 180 170 163 160 159 160 158 158 159 169 187 211 183 119 110 107 108 114 117 116 103 298 299 299 301 304 307 309 309 307 306 306 308 308 307 310 313 316 317 318 317 317 312 305 286 257 237 233 233 242 249 259 267 271 268 263 259 263 272 281 293 302 303 304 303 302 297 293 291 289 290 290 290 290 289 289 288 289 285 277 270